Weather History for KHWO - November, 2013

Change the Weather History Date:

Monday, November 11, 2013

  Actual Average (KFLL) Record (KFLL)
Temperature  
Mean Temperature 78 °F 76 °F  
Max Temperature 84 °F 82 °F 90 °F (1952)
Min Temperature 71 °F 70 °F 41 °F (1913)
Degree Days  
Heating Degree Days 0 0  
Month to date heating degree days 0  
Since 1 July heating degree days 0  
Cooling Degree Days 12 11  
Month to date cooling degree days 132  
Year to date cooling degree days 4326  
Growing Degree Days 28 (Base 50)    
Moisture  
Dew Point 68 °F    
Average Humidity 73    
Maximum Humidity 90    
Minimum Humidity 61    
Precipitation  
Precipitation 0.00 in 0.12 in 1.78 in (1920)
Month to date precipitation 1.50  
Year to date precipitation 57.98  
Snow  
Snow 0.00 in - - ()
Month to date snowfall  
Since 1 July snowfall  
Since 1 September snowfall  
Snow Depth -    
Sea Level Pressure  
Sea Level Pressure 30.09 in    
Wind  
Wind Speed 8 mph (NE)    
Max Wind Speed 18 mph    
Max Gust Speed 21 mph    
Visibility 10 miles    
Events      
T = Trace of Precipitation, MM = Missing Value Source: NWS Daily Summary

Daily Weather History Graph

Daily Weather History Graph

Search for Another Location

Airport or City:

Trip Planner

Search our weather history database for the weather conditions in past years. The results will help you decide how hot, cold, wet, or windy it might be!

Date:

Astronomy

Nov. 11, 2013 Rise Set
Actual Time 6:36 AM EST 5:33 PM EST
Civil Twilight 6:12 AM EST 5:57 PM EST
Nautical Twilight 5:44 AM EST 6:25 PM EST
Astronomical Twilight 5:17 AM EST 6:52 PM EST
Moon 1:41 PM EST (11/11) 12:54 AM EST (11/11)
Length of Visible Light 11h 45m
Length of Day
10h 56m
Waxing Gibbous, 66% of the Moon is Illuminated
Nov 11
Waxing Gibbous
Nov 17
Full
Nov 25
Last Quarter
Dec 2
New
Dec 9
First Quarter

Hourly Weather History & Observations

Time (EST) Temp. Heat Index Dew Point Humidity Pressure Visibility Wind Dir Wind Speed Gust Speed Precip Events Conditions
12:53 AM 75.0 °F - 68.0 °F 79% 30.09 in 10.0 mi NE 3.5 mph - N/A   Partly Cloudy
1:53 AM 75.0 °F - 68.0 °F 79% 30.08 in 10.0 mi NNE 5.8 mph - N/A   Clear
2:53 AM 72.0 °F - 66.9 °F 84% 30.07 in 10.0 mi NNW 4.6 mph - N/A   Clear
3:53 AM 71.1 °F - 68.0 °F 90% 30.07 in 10.0 mi North 4.6 mph - N/A   Clear
4:53 AM 72.0 °F - 68.0 °F 87% 30.07 in 10.0 mi North 4.6 mph - N/A   Clear
5:53 AM 72.0 °F - 68.0 °F 87% 30.09 in 10.0 mi North 4.6 mph - N/A   Partly Cloudy
6:53 AM 71.1 °F - 68.0 °F 90% 30.09 in 10.0 mi North 5.8 mph - N/A   Clear
7:53 AM 75.0 °F - 69.1 °F 82% 30.11 in 10.0 mi North 3.5 mph - N/A   Clear
8:16 AM 77.0 °F - 69.8 °F 78% 30.11 in 10.0 mi North 4.6 mph - N/A   Mostly Cloudy
8:53 AM 79.0 °F - 70.0 °F 74% 30.12 in 10.0 mi ENE 12.7 mph - N/A   Mostly Cloudy
9:00 AM 78.8 °F - 69.8 °F 74% 30.13 in 10.0 mi ENE 13.8 mph - N/A   Mostly Cloudy
9:53 AM 82.0 °F 85.9 °F 70.0 °F 67% 30.13 in 10.0 mi ENE 17.3 mph 20.7 mph N/A   Partly Cloudy
10:17 AM 82.4 °F 86.3 °F 69.8 °F 66% 30.13 in 10.0 mi ENE 15.0 mph - N/A   Mostly Cloudy
10:41 AM 82.4 °F 86.3 °F 69.8 °F 66% 30.13 in 10.0 mi ENE 12.7 mph 20.7 mph N/A   Mostly Cloudy
10:53 AM 84.0 °F 88.4 °F 70.0 °F 63% 30.13 in 10.0 mi ENE 15.0 mph - N/A   Mostly Cloudy
11:53 AM 84.0 °F 87.8 °F 69.1 °F 61% 30.11 in 10.0 mi ENE 12.7 mph - N/A   Mostly Cloudy
12:53 PM 82.9 °F 86.5 °F 69.1 °F 63% 30.09 in 10.0 mi NE 15.0 mph - N/A   Partly Cloudy
1:53 PM 82.9 °F 86.5 °F 69.1 °F 63% 30.08 in 10.0 mi ENE 13.8 mph - N/A   Scattered Clouds
2:53 PM 81.0 °F 83.8 °F 68.0 °F 65% 30.07 in 10.0 mi ENE 18.4 mph - N/A   Partly Cloudy
3:53 PM 80.1 °F 82.3 °F 66.9 °F 64% 30.07 in 10.0 mi ENE 11.5 mph - N/A   Partly Cloudy
4:53 PM 79.0 °F - 66.0 °F 64% 30.07 in 10.0 mi ENE 13.8 mph - N/A   Clear
5:53 PM 78.1 °F - 66.0 °F 66% 30.06 in 10.0 mi ENE 9.2 mph - N/A   Clear
6:53 PM 77.0 °F - 66.0 °F 69% 30.07 in 10.0 mi ENE 6.9 mph - N/A   Clear
7:53 PM 77.0 °F - 66.0 °F 69% 30.08 in 10.0 mi ENE 6.9 mph - N/A   Clear
8:53 PM 77.0 °F - 66.0 °F 69% 30.08 in 10.0 mi NE 8.1 mph - N/A   Clear
9:53 PM 75.9 °F - 64.9 °F 69% 30.10 in 10.0 mi ENE 6.9 mph - N/A   Clear
10:53 PM 73.9 °F - 66.0 °F 76% 30.09 in 10.0 mi NE 5.8 mph - N/A   Clear
11:53 PM 73.9 °F - 66.0 °F 76% 30.09 in 10.0 mi NE 4.6 mph - N/A   Clear